Regional Weather Roundup
Issued by NWS

Home | Current Version | Previous Version | Text Only | Print | Product List | Glossary Off
Versions: 1 2 3 4 5 6 7 8 9 10 11 12 13 14 15 16 17 18 19 20 21 22 23 24 25 26 27 28 29 30 31 32 33 34 35 36 37 38 39 40 41 42 43 44 45 46 47 48 49 50

000
ASUS43 KBIS 212302
RWRND

NORTH DAKOTA REGIONAL WEATHER ROUNDUP
NATIONAL WEATHER SERVICE BISMARCK ND
500 PM CST WED FEB 21 2018

NOTE: "FAIR" INDICATES FEW OR NO CLOUDS BELOW 12,000 FEET WITH NO
SIGNIFICANT WEATHER AND/OR OBSTRUCTIONS TO VISIBILITY.


NDZ001>003-009>011-017-220000-
NORTHWEST NORTH DAKOTA

CITY           SKY/WX    TMP DP  RH WIND       PRES   REMARKS
WILLISTON      FAIR      14   1  56 SE8       30.28F WCI   3
MINOT          FAIR      13   2  61 S8        30.36S WCI   2
MINOT AFB      FAIR      11   2  65 S6        30.35S WCI   2
$$

NDZ018>021-031>035-040>046-220000-
SOUTHWEST NORTH DAKOTA

CITY           SKY/WX    TMP DP  RH WIND       PRES   REMARKS
BISMARCK       FAIR      15   2  56 S13       30.42S WCI   1
DICKINSON      FAIR      13  -1  54 SE14      30.24S WCI  -2
GARRISON         N/A     11   2  67 SE7       30.35S WCI   0
HETTINGER ARPT FAIR       8  -4  58 E7        30.28F WCI  -3
$$

NDZ004>008-012>016-024-026-027-054-220000-
NORTHEAST NORTH DAKOTA

CITY           SKY/WX    TMP DP  RH WIND       PRES   REMARKS
GRAND FORKS    FAIR      11   2  67 S9        30.52S WCI  -2
GRND FRKS AFB  FAIR      12   0  58 SW6       30.51R WCI   2
DEVILS LAKE    FAIR       7   0  73 SW8       30.45S WCI  -6
$$

NDZ022-023-025-028>030-036>039-047>053-220000-
SOUTHEAST NORTH DAKOTA

CITY           SKY/WX    TMP DP  RH WIND       PRES   REMARKS
FARGO          FAIR      13   1  59 S14       30.54S WCI  -2
JAMESTOWN      FAIR      15   2  56 SW7       30.45R WCI   5
$$





USA.gov is the U.S. government's official web portal to all federal, state and local government web resources and services.